User: anonymous   Login
Location: Unspecified
(52.4292°N, 19.3359°E)
Time: 16:22:12
(UTC+02:00)
Language:

Vanguard 1 - Orbit

View from above orbital plane
View from above orbital plane
View from above satellite
View from above satellite

Ground track
Ground track

The orbit data is extracted from the following two-line orbital elements,

1 00005U 58002B   24139.26705077  .00001275  00000-0  16160-2 0  9994
2 00005  34.2497 139.4677 1841806 312.7713  33.1669 10.85367369360673
Epoch (UTC): 18 May 2024 06:24:33
Eccentricity: 0.1841806
inclination: 34.2497°
perigee height: 651 km
apogee height: 3826 km
right ascension of ascending node: 139.4677°
argument of perigee: 312.7713°
revolutions per day: 10.85367369
mean anomaly at epoch: 33.1669°
orbit number at epoch: 36067

The dashed part of the orbit path shows where the satellite is in the earth's shadow,  

DLR